Location: ?????????
(53.2086°N, 54.0693°E)
Time: 10:52:16
(UTC+00:00)

SeaSat 1 - Pass Details

Date: 08 December 2019
Orbit: 744 x 748 km, 108.0° (Epoch: 27 January)

Event Time Altitude Azimuth Distance (km) Brightness Sun altitude
Exits shadow 15:08:34 50° 3° (N) 952 2.8 -25.9°
Drops below altitude 10° 15:12:26 10° 333° (NNW) 2,273 5.2 -26.4°
Sets 15:14:43 0° 330° (NNW) 3,202 6.1 -26.8°
